NY5V Weather Reports


time (UTC)temp
C
wind
direction
speed
KPH
gust
KPH
rain 1hr
cm
rain 24hr
cm
rain mn
cm
humidity
%
barometer
mb
20260509161753 26 49 0.0 0.0 0.00 0.00 0.00 79 1010.7
20260509160750 26 39 4.8 6.4 0.00 0.00 0.00 80 1010.8
20260509155748 26 12 1.6 3.2 0.00 0.00 0.00 82 1011.0
20260509154747 25 38 1.6 1.6 0.00 0.00 0.00 85 1010.8
20260509153747 25 45 0.0 0.0 0.00 0.00 0.00 87 1010.7
20260509152745 24 47 0.0 0.0 0.00 0.00 0.00 89 1010.8
20260509151745 23 39 3.2 3.2 0.00 0.00 0.00 92 1010.5
20260509150739 23 39 1.6 1.6 0.00 0.00 0.00 96 1010.9
20260509145734 22 7 3.2 3.2 0.00 0.00 0.00 96 1010.9
20260509144731 22 37 1.6 1.6 0.00 0.00 0.00 96 1010.9
20260509143731 22 41 0.0 0.0 0.00 0.00 0.00 95 1011.0
20260509142730 22 45 0.0 0.0 0.00 0.00 0.00 95 1011.1
20260509141727 22 47 0.0 0.0 0.00 0.00 0.00 95 1011.2
20260509140727 22 47 0.0 0.0 0.00 0.00 0.00 95 1011.2
20260509135722 22 50 0.0 0.0 0.00 0.00 0.00 95 1011.1
20260509134722 22 51 0.0 0.0 0.00 0.00 0.00 96 1011.0
20260509133717 22 47 0.0 0.0 0.00 0.00 0.00 97 1011.0
20260509132712 22 48 0.0 0.0 0.00 0.00 0.00 98 1010.8
20260509131712 21 36 1.6 1.6 0.00 0.00 0.00 98 1010.9
20260509130711 21 44 3.2 3.2 0.00 0.00 0.00 99 1010.7
20260509125710 21 46 0.0 0.0 0.00 0.00 0.00 99 1011.0
20260509124709 21 44 1.6 1.6 0.00 0.00 0.00 99 1011.1
20260509123704 21 334 3.2 3.2 0.00 0.00 0.00 99 1010.9
20260509122702 21 43 0.0 1.6 0.00 0.00 0.00 99 1010.8
20260509121701 21 44 0.0 0.0 0.00 0.00 0.00 99 1010.4
20260509120657 21 33 0.0 1.6 0.00 0.00 0.00 99 1010.2
20260509115652 21 18 3.2 3.2 0.00 0.00 0.00 99 1010.3
20260509114648 21 45 0.0 1.6 0.00 0.00 0.00 99 1010.3
20260509113644 21 38 3.2 3.2 0.00 0.00 0.00 99 1010.2
20260509112643 21 45 0.0 1.6 0.00 0.00 0.00 99 1009.7
20260509111638 21 50 3.2 4.8 0.00 0.00 0.00 99 1009.7
20260509110637 21 37 1.6 1.6 0.00 0.00 0.00 99 1009.3
20260509105633 21 22 3.2 3.2 0.00 0.00 0.00 99 1009.0
20260509104633 21 48 1.6 3.2 0.00 0.00 0.00 99 1009.1
20260509103627 21 51 1.6 1.6 0.00 0.00 0.00 99 1009.4
20260509102622 20 33 4.8 6.4 0.00 0.00 0.00 99 1009.4
20260509101620 20 35 1.6 1.6 0.00 0.00 0.00 99 1009.5
20260509100620 20 35 1.6 1.6 0.00 0.00 0.00 99 1009.7
20260509095620 20 40 1.6 1.6 0.00 0.00 0.00 99 1009.6
20260509094619 20 1 4.8 4.8 0.00 0.00 0.00 98 1009.9
20260509093615 20 41 1.6 1.6 0.00 0.00 0.00 98 1010.0
20260509092615 20 45 0.0 1.6 0.00 0.00 0.00 98 1009.9
20260509091612 20 47 0.0 0.0 0.00 0.00 0.00 98 1010.1
20260509090611 20 48 0.0 0.0 0.00 0.00 0.00 97 1009.8
20260509085606 21 29 1.6 1.6 0.00 0.00 0.00 97 1010.0
20260509084605 21 46 1.6 1.6 0.00 0.00 0.00 97 1009.8
20260509083605 21 47 0.0 0.0 0.00 0.00 0.00 97 1009.8
20260509082605 21 46 0.0 0.0 0.00 0.00 0.00 96 1010.2
20260509081604 21 23 0.0 1.6 0.00 0.00 0.00 96 1010.5
20260509080559 21 22 4.8 6.4 0.00 0.00 0.00 95 1010.2
20260509075554 21 33 0.0 1.6 0.00 0.00 0.00 95 1010.7
20260509074555 21 46 0.0 0.0 0.00 0.00 0.00 95 1010.9
20260509073554 21 52 0.0 0.0 0.00 0.00 0.00 95 1011.1
20260509072552 21 48 0.0 0.0 0.00 0.00 0.00 95 1010.9
20260509071552 21 51 0.0 0.0 0.00 0.00 0.00 95 1011.0
20260509070547 21 55 0.0 0.0 0.00 0.00 0.00 94 1010.9
20260509065544 21 49 0.0 0.0 0.00 0.00 0.00 94 1010.9
20260509064544 21 48 0.0 0.0 0.00 0.00 0.00 94 1010.8
20260509063543 21 53 0.0 1.6 0.00 0.00 0.00 95 1010.4
20260509062538 21 46 1.6 1.6 0.00 0.00 0.00 94 1010.8
20260509061532 21 54 0.0 0.0 0.00 0.00 0.00 93 1011.1
20260509060527 21 46 0.0 1.6 0.00 0.00 0.00 92 1011.1
20260509055524 21 47 0.0 0.0 0.00 0.00 0.00 91 1011.6
20260509054523 21 49 0.0 0.0 0.00 0.00 0.00 91 1011.7
20260509053519 21 48 0.0 0.0 0.00 0.00 0.00 91 1011.9
20260509052519 21 50 0.0 0.0 0.00 0.00 0.00 91 1011.9
20260509051515 21 55 0.0 0.0 0.00 0.00 0.00 91 1011.6
20260509050514 21 41 0.0 1.6 0.00 0.00 0.00 90 1011.5
20260509045514 21 49 0.0 0.0 0.00 0.00 0.00 90 1011.4
20260509044509 21 33 0.0 1.6 0.00 0.00 0.00 90 1011.1
20260509043508 21 44 0.0 1.6 0.00 0.00 0.00 90 1011.0
20260509042506 22 46 0.0 0.0 0.00 0.00 0.00 90 1011.1
20260509041505 22 36 1.6 1.6 0.00 0.00 0.00 89 1010.8
20260509040501 22 51 0.0 0.0 0.00 0.00 0.00 89 1010.7
20260509035500 22 50 0.0 0.0 0.00 0.00 0.00 89 1010.5
20260509034455 22 40 1.6 1.6 0.00 0.00 0.00 88 1010.5
20260509033454 22 40 0.0 1.6 0.00 0.00 0.00 88 1010.6
20260509032454 22 47 0.0 0.0 0.00 0.00 0.00 87 1010.8
20260509031455 22 54 0.0 0.0 0.00 0.00 0.00 87 1010.5
20260509030450 22 46 0.0 0.0 0.00 0.00 0.00 86 1010.4
20260509025448 22 52 0.0 0.0 0.00 0.00 0.00 86 1010.2
20260509024446 22 45 0.0 0.0 0.00 0.00 0.00 85 1009.9
20260509023446 22 46 0.0 0.0 0.00 0.00 0.00 85 1010.0
20260509022445 22 46 0.0 0.0 0.00 0.00 0.00 84 1009.6
20260509021445 22 47 0.0 0.0 0.00 0.00 0.00 84 1009.4
20260509020441 22 46 0.0 0.0 0.00 0.00 0.00 83 1009.5
20260509015437 22 55 0.0 0.0 0.00 0.00 0.00 83 1009.5
20260509014435 22 46 0.0 0.0 0.00 0.00 0.00 82 1009.6
20260509013434 22 47 0.0 0.0 0.00 0.00 0.00 82 1009.2
20260509012432 22 42 0.0 1.6 0.00 0.00 0.00 81 1009.1
20260509011427 23 46 0.0 0.0 0.00 0.00 0.00 80 1009.2
20260509010422 23 358 4.8 4.8 0.00 0.00 0.00 79 1009.0
20260509005423 23 28 1.6 1.6 0.00 0.00 0.00 80 1008.9
20260509004419 23 357 1.6 3.2 0.00 0.00 0.00 79 1008.7
20260509003414 23 45 0.0 0.0 0.00 0.00 0.00 78 1008.9
20260509002409 23 20 1.6 1.6 0.00 0.00 0.00 77 1008.9
20260509001408 24 48 0.0 0.0 0.00 0.00 0.00 76 1008.9
20260509000403 24 49 1.6 1.6 0.00 0.00 0.00 76 1008.8
20260508235402 24 27 3.2 4.8 0.00 0.00 0.00 73 1008.7
20260508234401 25 36 3.2 3.2 0.00 0.00 0.00 71 1008.7
20260508233359 25 80 3.2 4.8 0.00 0.00 0.00 72 1008.4
20260508232358 25 351 1.6 3.2 0.00 0.00 0.00 72 1008.8
20260508231352 25 53 0.0 0.0 0.00 0.00 0.00 72 1008.8
20260508230351 25 24 1.6 3.2 0.00 0.00 0.00 71 1009.1
20260508225351 25 31 0.0 0.0 0.00 0.00 0.00 71 1009.6
20260508224347 25 55 0.0 0.0 0.00 0.00 0.00 70 1010.2
20260508223341 25 54 0.0 0.0 0.00 0.00 0.00 68 1009.8
20260508222336 25 43 0.0 1.6 0.00 0.00 0.00 69 1009.9
20260508221334 25 54 0.0 0.0 0.00 0.00 0.00 69 1009.7
20260508220332 25 328 3.2 4.8 0.00 0.00 0.00 65 1009.9
20260508215332 25 45 3.2 3.2 0.00 0.00 0.00 66 1009.8
20260508214332 25 49 0.0 0.0 0.00 0.00 0.00 65 1010.3
20260508213331 25 50 0.0 1.6 0.00 0.00 0.00 65 1010.2
20260508212329 26 52 0.0 0.0 0.00 0.00 0.00 64 1010.0
20260508211326 26 75 0.0 0.0 0.00 0.00 0.00 65 1010.0
20260508210321 26 35 0.0 0.0 0.00 0.00 0.00 65 1009.9
20260508205320 25 49 0.0 0.0 0.00 0.00 0.00 69 1010.1
20260508204319 25 56 0.0 0.0 0.00 0.00 0.00 65 1010.1
20260508203317 25 53 0.0 1.6 0.00 0.00 0.00 64 1009.7
20260508202316 25 45 1.6 1.6 0.00 0.00 0.00 62 1010.2
20260508201316 26 51 0.0 1.6 0.00 0.00 0.00 61 1010.5
20260508200315 26 48 0.0 0.0 0.00 0.00 0.00 59 1010.6
20260508195313 26 54 0.0 0.0 0.00 0.00 0.00 61 1010.7
20260508194313 26 45 0.0 0.0 0.00 0.00 0.00 57 1010.7
20260508193312 26 53 0.0 0.0 0.00 0.00 0.00 59 1011.0
20260508192312 26 65 1.6 1.6 0.00 0.00 0.00 59 1011.0
20260508191306 26 51 0.0 0.0 0.00 0.00 0.00 59 1011.3
20260508190305 26 54 0.0 1.6 0.00 0.00 0.00 59 1011.5
20260508185306 25 56 0.0 0.0 0.00 0.00 0.00 61 1011.4
20260508184305 25 38 0.0 1.6 0.00 0.00 0.00 62 1011.5
20260508183305 25 60 0.0 1.6 0.00 0.00 0.00 61 1011.7
20260508182306 25 45 0.0 1.6 0.00 0.00 0.00 62 1011.8
20260508181302 25 47 0.0 0.0 0.00 0.00 0.00 62 1012.4
20260508180301 24 22 1.6 1.6 0.00 0.00 0.00 65 1012.3
20260508175300 25 35 1.6 1.6 0.00 0.00 0.00 63 1012.2
20260508174255 25 43 0.0 1.6 0.00 0.00 0.00 63 1012.6
20260508173254 24 17 3.2 3.2 0.00 0.00 0.00 62 1013.0
20260508172254 25 52 3.2 4.8 0.00 0.00 0.00 61 1013.1
20260508171252 24 47 0.0 0.0 0.00 0.00 0.00 64 1013.2
20260508170247 23 55 3.2 3.2 0.00 0.00 0.00 66 1013.6
20260508165247 22 43 0.0 1.6 0.00 0.00 0.00 68 1013.8
20260508164245 23 87 1.6 3.2 0.00 0.00 0.00 67 1013.9
20260508163241 22 61 0.0 1.6 0.00 0.00 0.00 67 1014.3